Moses Lake, WA

2:59 AM PDT on April 30, 2017 (GMT -0700)
Grant County International

Weather History for KMWH - July, 2014

Change the Weather History Date:

Saturday, July 12, 2014

  Actual Average Record
Temperature  
Mean Temperature 81 °F 72 °F  
Max Temperature 102 °F 89 °F 106 °F (2002)
Min Temperature 60 °F 56 °F 38 °F (1981)
Degree Days  
Heating Degree Days 0 0  
Month to date heating degree days 0 6  
Since 1 June heating degree days 24 61  
Since 1 July heating degree days 0 6  
Cooling Degree Days 16 7  
Month to date cooling degree days 164 77  
Year to date cooling degree days 316 187  
Since 1 June cooling degree days 281 162  
Growing Degree Days 32 (Base 50)    
Moisture  
Dew Point 39 °F    
Average Humidity 26    
Maximum Humidity 43    
Minimum Humidity 9    
Precipitation  
Precipitation 0.00 in 0.01 in 0.03 in (1982)
Month to date precipitation 0.00 0.19  
Year to date precipitation 3.21 4.96  
Sea Level Pressure  
Sea Level Pressure 30.00 in    
Wind  
Wind Speed 5 mph (NW)    
Max Wind Speed 12 mph    
Max Gust Speed 15 mph    
Visibility 10 miles    
Events      
T = Trace of Precipitation, MM = Missing Value Source: NWS Daily Summary

Daily Weather History Graph

Daily Weather History Graph

Search for Another Location

Airport or City:

Trip Planner

Search our weather history database for the weather conditions in past years. The results will help you decide how hot, cold, wet, or windy it might be!

Date:

Astronomy

Jul. 12, 2014 Rise Set
Actual Time 5:13 AM PDT 8:51 PM PDT
Civil Twilight 4:35 AM PDT 9:30 PM PDT
Nautical Twilight 3:43 AM PDT 10:21 PM PDT
Astronomical Twilight 2:31 AM PDT 11:32 PM PDT
Moon 8:48 PM PDT (7/12) 5:45 AM PDT (7/12)
Length of Visible Light 16h 54m
Length of Day
15h 37m
Full, 100% of the Moon is Illuminated
Jul 12
Full
Jul 18
Last Quarter
Jul 26
New
Aug 3
First Quarter
Aug 10
Full

Hourly Weather History & Observations

Time (PDT) Temp. Dew Point Humidity Pressure Visibility Wind Dir Wind Speed Gust Speed Precip Events Conditions
12:52 AM 70.0 °F 45.0 °F 41% 29.93 in 10.0 mi NNE 4.6 mph - N/A   Clear
1:52 AM 71.1 °F 43.0 °F 36% 29.94 in 10.0 mi SSW 3.5 mph - N/A   Clear
2:52 AM 66.2 °F 41.0 °F 40% 29.98 in 10.0 mi North 8.1 mph - N/A   Clear
3:52 AM 64.9 °F 37.9 °F 37% 29.96 in 10.0 mi NNE 5.8 mph - N/A   Clear
4:52 AM 63.0 °F 39.9 °F 43% 29.98 in 10.0 mi North 6.9 mph - N/A   Clear
5:52 AM 64.4 °F 37.4 °F 37% 30.03 in 10.0 mi North 6.9 mph - N/A   Clear
6:52 AM 69.1 °F 41.0 °F 36% 30.02 in 10.0 mi NNE 5.8 mph - N/A   Clear
7:52 AM 75.9 °F 42.1 °F 30% 30.04 in 10.0 mi NNE 4.6 mph - N/A   Clear
8:52 AM 82.0 °F 41.0 °F 23% 30.05 in 10.0 mi Calm Calm - N/A   Clear
10:52 AM 90.0 °F 42.1 °F 19% 30.05 in 10.0 mi Variable 3.5 mph - N/A   Clear
11:52 AM 90.0 °F 45.0 °F 21% 30.05 in 10.0 mi SW 5.8 mph - N/A   Clear
12:52 PM 93.9 °F 41.0 °F 16% 30.05 in 10.0 mi Variable 4.6 mph - N/A   Clear
1:52 PM 99.0 °F 39.0 °F 13% 30.04 in 10.0 mi WSW 9.2 mph - N/A   Clear
2:52 PM 100.0 °F 35.1 °F 10% 30.03 in 10.0 mi SW 8.1 mph - N/A   Clear
3:52 PM 100.9 °F 35.1 °F 10% 30.01 in 10.0 mi SW 9.2 mph - N/A   Clear
4:52 PM 100.0 °F 32.0 °F 9% 30.00 in 10.0 mi SSW 6.9 mph - N/A   Clear
5:52 PM 99.0 °F 34.0 °F 10% 29.99 in 10.0 mi West 5.8 mph - N/A   Clear
6:52 PM 99.0 °F 33.1 °F 10% 29.98 in 10.0 mi Variable 5.8 mph - N/A   Clear
7:52 PM 97.0 °F 34.0 °F 11% 29.98 in 10.0 mi SW 5.8 mph - N/A   Clear
8:52 PM 93.9 °F 37.0 °F 14% 29.97 in 10.0 mi Calm Calm - N/A   Clear
9:52 PM 86.0 °F 37.0 °F 18% 29.98 in 10.0 mi West 4.6 mph - N/A   Clear
10:52 PM 81.0 °F 37.9 °F 21% 29.99 in 10.0 mi North 4.6 mph - N/A   Clear
11:52 PM 75.9 °F 43.0 °F 31% 30.00 in 10.0 mi North 3.5 mph - N/A   Clear